Date String (YYYY-MM-DD hh:mm:ss) UTC,Instrument flags,Ambient pressure (hPa),Sample flow (lpm),Bypass flow (lpm),Sample temperature (°C),Ambient temperature (°C),ASC tube jacket temperature (°C),LED temperature (°C),Box temperature (°C),Sample RH (%),Span deviation,Mass concentration (μg/m³),Mass concentration (μg/m³),Mass concentration (μg/m³)
DateTimeUTC,F1_M11,P_M11,Q1_M11,Q2_M11,T1_M11,T2_M11,T3_M11,T4_M11,T5_M11,U1_M11,ZSPAN_M11,X0_M11,X2_M11,X1_M11
2022-08-06 09:00:00,,0828.0,5.01,0.00,29.4,27.8,00.0,38.3,31.3,31.5,0000.0,0010.48,0004.45,0003.67
2022-08-06 09:01:00,,0828.0,5.00,0.00,29.5,27.9,00.0,38.3,31.4,31.6,0000.0,0009.74,0004.40,0003.64
2022-08-06 09:02:00,,0828.0,5.00,0.00,29.5,28.1,00.0,38.3,31.4,31.6,0000.0,0009.10,0004.39,0003.62
2022-08-06 09:03:00,,0828.1,5.01,0.00,29.5,28.2,00.0,38.3,31.4,31.7,0000.0,0008.75,0004.32,0003.60
2022-08-06 09:04:00,,0828.1,5.00,0.00,29.5,28.3,00.0,38.3,31.5,31.6,0000.0,0008.24,0004.31,0003.58
2022-08-06 09:05:00,,0828.0,5.00,0.00,29.5,28.4,00.0,38.3,31.5,31.6,0000.0,0007.88,0004.28,0003.56
2022-08-06 09:06:00,,0828.1,5.00,0.00,29.6,28.5,00.0,38.3,31.5,31.6,0000.0,0007.66,0004.25,0003.55
2022-08-06 09:07:00,,0828.1,5.00,0.00,29.6,28.6,00.0,38.3,31.6,31.6,0000.0,0007.55,0004.22,0003.53
2022-08-06 09:08:00,,0828.1,5.00,0.00,29.6,28.6,00.0,38.4,31.6,31.6,0000.0,0007.45,0004.22,0003.53
2022-08-06 09:09:00,,0828.2,5.00,0.00,29.7,28.7,00.0,38.4,31.7,31.6,0000.0,0007.21,0004.17,0003.52
2022-08-06 09:10:00,,0828.2,5.00,0.00,29.7,28.6,00.0,38.4,31.7,31.5,0000.0,0007.34,0004.16,0003.52
2022-08-06 09:11:00,,0828.2,4.99,0.00,29.7,28.0,00.0,38.4,31.5,31.5,0000.0,0007.41,0004.15,0003.50
2022-08-06 09:12:00,,0828.2,5.01,0.00,29.6,27.6,00.0,38.3,31.5,31.6,0000.0,0007.56,0004.15,0003.49
2022-08-06 09:13:00,,0828.2,5.00,0.00,29.6,27.6,00.0,38.3,31.4,31.7,0000.0,0008.21,0004.17,0003.48
2022-08-06 09:14:00,,0828.2,5.00,0.00,29.5,27.6,00.0,38.3,31.3,31.8,0000.0,0008.22,0004.15,0003.47
2022-08-06 09:15:00,,0828.3,5.01,0.00,29.5,27.7,00.0,38.3,31.3,31.8,0000.0,0008.22,0004.11,0003.46
2022-08-06 09:16:00,,0828.2,4.99,0.00,29.5,27.9,00.0,38.3,31.4,31.9,0000.0,0008.40,0004.11,0003.45
2022-08-06 09:17:00,,0828.3,4.99,0.00,29.5,28.0,00.0,38.3,31.4,31.9,0000.0,0008.92,0004.10,0003.43
2022-08-06 09:18:00,,0828.2,5.01,0.00,29.5,28.1,00.0,38.3,31.4,31.9,0000.0,0008.86,0004.08,0003.42
2022-08-06 09:19:00,,0828.3,5.00,0.00,29.5,28.2,00.0,38.3,31.5,31.8,0000.0,0009.11,0004.07,0003.41
2022-08-06 09:20:00,,0828.3,5.01,0.00,29.6,28.4,00.0,38.4,31.5,31.8,0000.0,0009.65,0004.11,0003.40
2022-08-06 09:21:00,,0828.3,5.00,0.00,29.6,28.5,00.0,38.4,31.5,31.8,0000.0,0010.28,0004.13,0003.40
2022-08-06 09:22:00,,0828.4,5.01,0.00,29.6,28.5,00.0,38.4,31.6,31.8,0000.0,0010.61,0004.16,0003.40
2022-08-06 09:23:00,,0828.3,5.00,0.00,29.6,28.6,00.0,38.4,31.6,31.6,0000.0,0010.67,0004.18,0003.40
2022-08-06 09:24:00,,0828.4,4.99,0.00,29.7,28.7,00.0,38.4,31.7,31.5,0000.0,0010.30,0004.16,0003.40
2022-08-06 09:25:00,,0828.4,5.00,0.00,29.7,28.6,00.0,38.4,31.7,31.3,0000.0,0010.33,0004.14,0003.40
2022-08-06 09:26:00,,0828.4,5.00,0.00,29.7,27.9,00.0,38.4,31.5,31.3,0000.0,0010.88,0004.19,0003.42
2022-08-06 09:27:00,,0828.4,5.00,0.00,29.6,27.2,00.0,38.3,31.3,31.5,0000.0,0011.66,0004.22,0003.44
2022-08-06 09:28:00,,0828.4,4.99,0.00,29.5,27.0,00.0,38.3,31.3,31.5,0000.0,0012.03,0004.25,0003.46
2022-08-06 09:29:00,,0828.4,5.01,0.00,29.4,27.0,00.0,38.3,31.1,31.8,0000.0,0012.85,0004.30,0003.49
2022-08-06 09:30:00,,0828.4,5.00,0.00,29.4,27.1,00.0,38.2,31.1,31.8,0000.0,0013.37,0004.31,0003.51
2022-08-06 09:31:00,,0828.4,5.00,0.00,29.4,27.3,00.0,38.2,31.2,31.9,0000.0,0013.13,0004.30,0003.54
2022-08-06 09:32:00,,0828.4,5.01,0.00,29.4,27.5,00.0,38.2,31.2,31.9,0000.0,0012.94,0004.29,0003.55
2022-08-06 09:33:00,,0828.3,5.00,0.00,29.4,27.7,00.0,38.2,31.2,32.0,0000.0,0012.57,0004.24,0003.56
2022-08-06 09:34:00,,0828.4,4.99,0.00,29.4,27.8,00.0,38.2,31.3,32.0,0000.0,0012.34,0004.19,0003.56
2022-08-06 09:35:00,,0828.5,5.00,0.00,29.4,28.0,00.0,38.2,31.3,32.0,0000.0,0011.92,0004.17,0003.56
2022-08-06 09:36:00,,0828.5,5.01,0.00,29.4,28.1,00.0,38.2,31.3,32.0,0000.0,0012.00,0004.17,0003.56
2022-08-06 09:37:00,,0828.5,5.00,0.00,29.4,28.2,00.0,38.2,31.4,31.9,0000.0,0012.06,0004.21,0003.55
2022-08-06 09:38:00,,0828.3,5.00,0.00,29.4,28.3,00.0,38.2,31.4,31.9,0000.0,0011.35,0004.23,0003.54
2022-08-06 09:39:00,,0828.3,5.00,0.00,29.5,28.4,00.0,38.3,31.4,31.9,0000.0,0010.71,0004.24,0003.54
2022-08-06 09:40:00,,0828.4,5.00,0.00,29.5,28.5,00.0,38.3,31.5,31.9,0000.0,0009.93,0004.25,0003.53
2022-08-06 09:41:00,,0828.3,5.00,0.00,29.5,28.6,00.0,38.3,31.5,31.8,0000.0,0009.50,0004.27,0003.53
2022-08-06 09:42:00,,0828.4,5.00,0.00,29.6,28.6,00.0,38.3,31.6,31.7,0000.0,0009.17,0004.27,0003.51
2022-08-06 09:43:00,,0828.4,5.00,0.00,29.6,28.7,00.0,38.3,31.6,31.6,0000.0,0009.00,0004.27,0003.51
2022-08-06 09:44:00,,0828.5,5.02,0.00,29.7,28.7,00.0,38.4,31.7,31.6,0000.0,0009.10,0004.33,0003.51
2022-08-06 09:45:00,,0828.5,5.00,0.00,29.7,28.7,00.0,38.4,31.7,31.6,0000.0,0009.44,0004.35,0003.53
2022-08-06 09:46:00,,0828.5,4.99,0.00,29.7,28.1,00.0,38.3,31.5,31.7,0000.0,0009.72,0004.38,0003.54
2022-08-06 09:47:00,,0828.5,5.01,0.00,29.6,27.3,00.0,38.3,31.3,31.8,0000.0,0009.56,0004.36,0003.54
2022-08-06 09:48:00,,0828.5,5.00,0.00,29.5,27.0,00.0,38.3,31.3,32.0,0000.0,0009.21,0004.29,0003.54
2022-08-06 09:49:00,,0828.5,4.99,0.00,29.4,27.0,00.0,38.2,31.1,32.2,0000.0,0009.44,0004.25,0003.54
2022-08-06 09:50:00,,0828.5,5.00,0.00,29.4,27.1,00.0,38.2,31.1,32.4,0000.0,0009.75,0004.24,0003.55
2022-08-06 09:51:00,,0828.6,5.01,0.00,29.4,27.3,00.0,38.2,31.1,32.5,0000.0,0009.68,0004.24,0003.54
2022-08-06 09:52:00,,0829.0,4.99,0.00,29.3,27.4,00.0,38.2,31.2,32.5,0000.0,0009.57,0004.23,0003.54
2022-08-06 09:53:00,,0829.0,5.00,0.00,29.3,27.6,00.0,38.2,31.2,32.5,0000.0,0009.56,0004.24,0003.53
2022-08-06 09:54:00,,0829.0,5.00,0.00,29.4,27.8,00.0,38.2,31.2,32.6,0000.0,0009.56,0004.24,0003.53
2022-08-06 09:55:00,,0829.1,5.00,0.00,29.4,27.9,00.0,38.2,31.3,32.5,0000.0,0009.35,0004.22,0003.53
2022-08-06 09:56:00,,0829.1,4.99,0.00,29.4,28.0,00.0,38.2,31.3,32.5,0000.0,0009.17,0004.23,0003.52
2022-08-06 09:57:00,,0829.0,5.00,0.00,29.4,28.2,00.0,38.2,31.3,32.5,0000.0,0009.23,0004.25,0003.53
2022-08-06 09:58:00,,0829.1,5.00,0.00,29.4,28.3,00.0,38.2,31.4,32.5,0000.0,0009.37,0004.29,0003.54
2022-08-06 09:59:00,,0828.9,5.01,0.00,29.5,28.4,00.0,38.2,31.4,32.4,0000.0,0009.16,0004.31,0003.54
